LAV930P LSZH-EDDM

Flight info

Callsign LAV930P
Flight time 0h 42m
Altitude 24000
Route DEGES Z6 NUNRI/N0400F230 T103 BETOS BETOS1B
Aircraft B738/M-SDE2E3FGHIRWXY/LB1

Departure

Time 2026-05-07 19:12
Airport Zürich Airport (LSZH)

Arrival

Time 2026-05-07 19:55
Airport Munich Airport (EDDM)
Time Latitude Longitude Altitude Speed Heading
2026-05-07 18:51 47.45406 8.56063 1396 ft 0 kts 186°
2026-05-07 19:03 47.45410 8.56063 1369 ft 2 kts 185°
2026-05-07 19:03 47.45427 8.56066 1408 ft 2 kts 185°
2026-05-07 19:03 47.45443 8.56068 1405 ft 2 kts 185°
2026-05-07 19:04 47.45460 8.56071 1405 ft 2 kts 176°
2026-05-07 19:04 47.45474 8.56060 1401 ft 2 kts 134°
2026-05-07 19:04 47.45485 8.56041 1403 ft 2 kts 118°
2026-05-07 19:04 47.45489 8.56026 1401 ft 1 kts 103°
2026-05-07 19:05 47.45489 8.56025 1401 ft 0 kts 102°
2026-05-07 19:06 47.45486 8.56069 1398 ft 8 kts 96°
2026-05-07 19:06 47.45480 8.56156 1396 ft 9 kts 96°
2026-05-07 19:07 47.45503 8.56242 1399 ft 11 kts 30°
2026-05-07 19:07 47.45579 8.56260 1397 ft 8 kts
2026-05-07 19:07 47.45594 8.56262 1400 ft 0 kts
2026-05-07 19:09 47.45598 8.56263 1397 ft 3 kts
2026-05-07 19:09 47.45626 8.56267 1398 ft 4 kts
2026-05-07 19:09 47.45660 8.56273 1400 ft 5 kts
2026-05-07 19:10 47.45700 8.56279 1404 ft 7 kts
2026-05-07 19:10 47.45781 8.56291 1403 ft 15 kts
2026-05-07 19:10 47.45898 8.56308 1400 ft 17 kts
2026-05-07 19:10 47.46014 8.56326 1401 ft 16 kts
2026-05-07 19:11 47.46128 8.56343 1407 ft 17 kts
2026-05-07 19:11 47.46227 8.56313 1407 ft 12 kts 322°
2026-05-07 19:11 47.46236 8.56302 1409 ft 0 kts 317°
2026-05-07 19:11 47.46239 8.56298 1404 ft 4 kts 317°
2026-05-07 19:12 47.46389 8.56093 1409 ft 68 kts 317°
2026-05-07 19:12 47.46932 8.55351 1403 ft 141 kts 317°
2026-05-07 19:12 47.47779 8.54180 1699 ft 176 kts 317°
2026-05-07 19:12 47.48655 8.52961 2797 ft 171 kts 320°
2026-05-07 19:13 47.49587 8.51847 3633 ft 177 kts 324°
2026-05-07 19:13 47.50698 8.50793 3982 ft 204 kts 330°
2026-05-07 19:13 47.51972 8.49692 4320 ft 219 kts 324°
2026-05-07 19:13 47.53032 8.48049 4856 ft 225 kts 301°
2026-05-07 19:14 47.53559 8.45919 5430 ft 225 kts 276°
2026-05-07 19:14 47.53421 8.43636 6065 ft 224 kts 251°
2026-05-07 19:14 47.52791 8.41520 6641 ft 225 kts 243°
2026-05-07 19:14 47.52088 8.39436 7200 ft 226 kts 240°
2026-05-07 19:15 47.51024 8.37762 7773 ft 227 kts 211°
2026-05-07 19:15 47.49514 8.37138 8350 ft 230 kts 181°
2026-05-07 19:15 47.47969 8.37774 8876 ft 238 kts 149°
2026-05-07 19:15 47.46803 8.39538 9415 ft 244 kts 126°
2026-05-07 19:16 47.45956 8.41751 9932 ft 250 kts 116°
2026-05-07 19:16 47.45641 8.44326 10235 ft 266 kts 91°
2026-05-07 19:16 47.45670 8.47127 10456 ft 278 kts 90°
2026-05-07 19:16 47.45698 8.50018 10851 ft 283 kts 91°
2026-05-07 19:17 47.45708 8.52932 11311 ft 285 kts 91°
2026-05-07 19:17 47.45738 8.55868 11771 ft 287 kts 89°
2026-05-07 19:17 47.45846 8.58789 12241 ft 290 kts 88°
2026-05-07 19:17 47.45967 8.61774 12727 ft 292 kts 88°
2026-05-07 19:18 47.46083 8.64785 13217 ft 295 kts 88°
2026-05-07 19:18 47.46196 8.67836 13706 ft 298 kts 88°
2026-05-07 19:18 47.46310 8.70907 14166 ft 300 kts 88°
2026-05-07 19:18 47.46425 8.73991 14629 ft 301 kts 88°
2026-05-07 19:19 47.46539 8.77100 15103 ft 303 kts 88°
2026-05-07 19:19 47.46653 8.80219 15583 ft 304 kts 88°
2026-05-07 19:19 47.46651 8.83348 16030 ft 306 kts 98°
2026-05-07 19:19 47.46253 8.86427 16509 ft 306 kts 104°
2026-05-07 19:20 47.45767 8.89459 16965 ft 307 kts 105°
2026-05-07 19:20 47.45270 8.92550 17404 ft 310 kts 104°
2026-05-07 19:20 47.44799 8.95669 17849 ft 312 kts 103°
2026-05-07 19:20 47.44342 8.98811 18301 ft 313 kts 103°
2026-05-07 19:21 47.43889 9.01968 18680 ft 315 kts 103°
2026-05-07 19:21 47.43431 9.05146 19044 ft 317 kts 103°
2026-05-07 19:21 47.42971 9.08340 19419 ft 319 kts 102°
2026-05-07 19:21 47.42826 9.11612 19751 ft 322 kts 82°
2026-05-07 19:22 47.43392 9.14779 20124 ft 323 kts 71°
2026-05-07 19:22 47.44126 9.17920 20481 ft 325 kts 70°
2026-05-07 19:22 47.44886 9.21080 20824 ft 327 kts 70°
2026-05-07 19:22 47.45647 9.24260 21157 ft 329 kts 70°
2026-05-07 19:23 47.46403 9.27459 21502 ft 331 kts 70°
2026-05-07 19:23 47.47154 9.30679 21829 ft 333 kts 70°
2026-05-07 19:23 47.47904 9.33930 22150 ft 334 kts 70°
2026-05-07 19:23 47.48651 9.37195 22489 ft 336 kts 71°
2026-05-07 19:24 47.49398 9.40479 22800 ft 338 kts 71°
2026-05-07 19:24 47.50145 9.43778 23100 ft 339 kts 71°
2026-05-07 19:24 47.50887 9.47061 23392 ft 341 kts 71°
2026-05-07 19:24 47.51641 9.50406 23685 ft 343 kts 71°
2026-05-07 19:25 47.52395 9.53763 23930 ft 344 kts 71°
2026-05-07 19:25 47.53151 9.57131 24046 ft 348 kts 71°
2026-05-07 19:25 47.53916 9.60546 24044 ft 350 kts 70°
2026-05-07 19:25 47.54679 9.63958 24051 ft 348 kts 71°
2026-05-07 19:26 47.55436 9.67351 24039 ft 344 kts 71°
2026-05-07 19:26 47.56185 9.70710 24043 ft 344 kts 71°
2026-05-07 19:26 47.56925 9.74036 24055 ft 345 kts 70°
2026-05-07 19:26 47.57675 9.77412 24057 ft 345 kts 71°
2026-05-07 19:27 47.58427 9.80804 24057 ft 346 kts 71°
2026-05-07 19:27 47.59181 9.84205 24053 ft 347 kts 71°
2026-05-07 19:27 47.59932 9.87602 24053 ft 348 kts 71°
2026-05-07 19:27 47.60684 9.91010 24047 ft 348 kts 71°
2026-05-07 19:28 47.61434 9.94412 24044 ft 348 kts 71°
2026-05-07 19:28 47.62185 9.97828 24025 ft 350 kts 71°
2026-05-07 19:28 47.62949 10.01302 24032 ft 360 kts 71°
2026-05-07 19:28 47.63742 10.04912 24027 ft 376 kts 71°
2026-05-07 19:29 47.64566 10.08668 24063 ft 391 kts 71°
2026-05-07 19:29 47.65420 10.12576 24078 ft 406 kts 71°
2026-05-07 19:29 47.66005 10.15251 24070 ft 415 kts 71°
2026-05-07 19:29 47.66678 10.18338 24073 ft 425 kts 71°
2026-05-07 19:30 47.67588 10.22523 24071 ft 437 kts 71°
2026-05-07 19:30 47.68532 10.26870 24070 ft 448 kts 71°
2026-05-07 19:30 47.69493 10.31309 24071 ft 452 kts 71°
2026-05-07 19:30 47.70450 10.35738 24054 ft 449 kts 71°
2026-05-07 19:31 47.71397 10.40135 24041 ft 441 kts 71°
2026-05-07 19:31 47.72313 10.44402 24044 ft 428 kts 71°
2026-05-07 19:31 47.73210 10.48584 24048 ft 423 kts 71°
2026-05-07 19:31 47.74103 10.52754 24065 ft 424 kts 71°
2026-05-07 19:32 47.74997 10.56935 23914 ft 426 kts 71°
2026-05-07 19:32 47.75891 10.61121 23504 ft 422 kts 71°
2026-05-07 19:32 47.76772 10.65261 22982 ft 418 kts 71°
2026-05-07 19:32 47.77644 10.69366 22478 ft 413 kts 71°
2026-05-07 19:33 47.78505 10.73429 21991 ft 409 kts 71°
2026-05-07 19:33 47.79356 10.77448 21499 ft 405 kts 72°
2026-05-07 19:33 47.80198 10.81439 21003 ft 402 kts 72°
2026-05-07 19:33 47.81031 10.85394 20522 ft 399 kts 72°
2026-05-07 19:34 47.81856 10.89318 20043 ft 396 kts 72°
2026-05-07 19:34 47.82672 10.93211 19573 ft 393 kts 72°
2026-05-07 19:34 47.83476 10.97044 19105 ft 391 kts 72°
2026-05-07 19:34 47.84281 11.00894 18642 ft 389 kts 72°
2026-05-07 19:35 47.85085 11.04737 18141 ft 387 kts 72°
2026-05-07 19:35 47.86094 11.08440 17605 ft 384 kts 60°
2026-05-07 19:35 47.87583 11.11710 17117 ft 379 kts 48°
2026-05-07 19:35 47.89445 11.14449 16646 ft 375 kts 37°
2026-05-07 19:36 47.91480 11.16856 16199 ft 372 kts 36°
2026-05-07 19:36 47.92827 11.18413 16101 ft 367 kts 35°
2026-05-07 19:36 47.95443 11.21450 16067 ft 352 kts 36°
2026-05-07 19:36 47.97333 11.23674 16057 ft 341 kts 36°
2026-05-07 19:37 47.99156 11.25839 16048 ft 328 kts 36°
2026-05-07 19:37 48.00323 11.27232 16049 ft 319 kts 36°
2026-05-07 19:37 48.02022 11.29262 16061 ft 306 kts 36°
2026-05-07 19:37 48.03648 11.31210 16059 ft 293 kts 36°
2026-05-07 19:38 48.05208 11.33079 16052 ft 281 kts 35°
2026-05-07 19:38 48.06624 11.34995 16040 ft 272 kts 54°
2026-05-07 19:38 48.07451 11.37491 16107 ft 269 kts 65°
2026-05-07 19:38 48.08159 11.40234 16123 ft 295 kts 69°
2026-05-07 19:39 48.08874 11.43255 16130 ft 317 kts 69°
2026-05-07 19:39 48.09598 11.46359 16074 ft 312 kts 69°
2026-05-07 19:39 48.10311 11.49380 15831 ft 308 kts 68°
2026-05-07 19:39 48.11143 11.52423 14882 ft 324 kts 65°
2026-05-07 19:40 48.12074 11.55545 13805 ft 341 kts 64°
2026-05-07 19:40 48.13079 11.58857 12859 ft 355 kts 64°
2026-05-07 19:40 48.14111 11.62225 12381 ft 355 kts 64°
2026-05-07 19:40 48.15137 11.65569 12012 ft 351 kts 64°
2026-05-07 19:41 48.16154 11.68876 11633 ft 347 kts 64°
2026-05-07 19:41 48.17153 11.72128 11543 ft 338 kts 64°
2026-05-07 19:41 48.18133 11.75322 11410 ft 340 kts 64°
2026-05-07 19:41 48.19129 11.78562 11421 ft 345 kts 64°
2026-05-07 19:42 48.20140 11.81850 11423 ft 349 kts 64°
2026-05-07 19:42 48.21158 11.85161 11255 ft 350 kts 64°
2026-05-07 19:42 48.22179 11.88478 10994 ft 348 kts 64°
2026-05-07 19:42 48.23189 11.91764 10745 ft 346 kts 64°
2026-05-07 19:43 48.24195 11.95036 10520 ft 343 kts 64°
2026-05-07 19:43 48.25163 11.98194 10459 ft 332 kts 64°
2026-05-07 19:43 48.26079 12.01280 10330 ft 315 kts 70°
2026-05-07 19:43 48.26512 12.04411 10212 ft 299 kts 82°
2026-05-07 19:44 48.26748 12.07478 9747 ft 297 kts 84°
2026-05-07 19:44 48.26961 12.10568 9186 ft 297 kts 84°
2026-05-07 19:44 48.27167 12.13635 8728 ft 294 kts 84°
2026-05-07 19:44 48.27369 12.16683 8235 ft 292 kts 84°
2026-05-07 19:45 48.27568 12.19706 7782 ft 289 kts 84°
2026-05-07 19:45 48.27763 12.22693 7349 ft 286 kts 84°
2026-05-07 19:45 48.27954 12.25650 6916 ft 284 kts 84°
2026-05-07 19:45 48.28144 12.28600 6731 ft 279 kts 84°
2026-05-07 19:46 48.28337 12.31457 6595 ft 272 kts 80°
2026-05-07 19:46 48.29032 12.34059 6296 ft 269 kts 51°
2026-05-07 19:46 48.30441 12.35821 6012 ft 263 kts 22°
2026-05-07 19:46 48.32199 12.36337 5720 ft 257 kts 353°
2026-05-07 19:47 48.33839 12.35531 5429 ft 251 kts 324°
2026-05-07 19:47 48.35001 12.33625 5128 ft 248 kts 298°
2026-05-07 19:47 48.35786 12.31355 4772 ft 243 kts 295°
2026-05-07 19:47 48.36516 12.29067 4429 ft 238 kts 294°
2026-05-07 19:48 48.37201 12.26882 4318 ft 225 kts 294°
2026-05-07 19:48 48.37860 12.24764 4062 ft 223 kts 294°
2026-05-07 19:48 48.38196 12.22535 3988 ft 220 kts 261°
2026-05-07 19:48 48.37806 12.20325 3998 ft 219 kts 256°
2026-05-07 19:49 48.37505 12.18082 4010 ft 218 kts 261°
2026-05-07 19:49 48.37287 12.15810 4002 ft 221 kts 263°
2026-05-07 19:49 48.37094 12.13498 3994 ft 223 kts 263°
2026-05-07 19:49 48.36910 12.11220 3991 ft 215 kts 263°
2026-05-07 19:50 48.36734 12.09028 3983 ft 208 kts 263°
2026-05-07 19:50 48.36563 12.06890 3994 ft 205 kts 263°
2026-05-07 19:50 48.36393 12.04765 3997 ft 208 kts 263°
2026-05-07 19:50 48.36221 12.02605 3991 ft 208 kts 263°
2026-05-07 19:51 48.36050 12.00459 3984 ft 201 kts 263°
2026-05-07 19:51 48.35892 11.98476 3853 ft 183 kts 263°
2026-05-07 19:51 48.35749 11.96661 3679 ft 166 kts 263°
2026-05-07 19:51 48.35618 11.95010 3452 ft 152 kts 263°
2026-05-07 19:52 48.35498 11.93485 3265 ft 140 kts 264°
2026-05-07 19:52 48.35383 11.92013 3071 ft 144 kts 264°
2026-05-07 19:52 48.35267 11.90528 2868 ft 141 kts 264°
2026-05-07 19:52 48.35152 11.89064 2716 ft 141 kts 263°
2026-05-07 19:53 48.35028 11.87599 2558 ft 141 kts 264°
2026-05-07 19:53 48.34909 11.86149 2341 ft 141 kts 265°
2026-05-07 19:53 48.34802 11.84664 2119 ft 144 kts 264°
2026-05-07 19:53 48.34682 11.83170 1884 ft 144 kts 264°
2026-05-07 19:54 48.34568 11.81677 1706 ft 141 kts 265°
2026-05-07 19:54 48.34461 11.80228 1511 ft 139 kts 265°
2026-05-07 19:54 48.34360 11.78891 1481 ft 114 kts 263°
2026-05-07 19:54 48.34282 11.77891 1484 ft 79 kts 263°
2026-05-07 19:55 48.34263 11.77280 1478 ft 38 kts 284°
2026-05-07 19:55 48.34316 11.77057 1478 ft 12 kts 293°
2026-05-07 19:55 48.34342 11.76966 1479 ft 8 kts 293°
2026-05-07 19:55 48.34363 11.76892 1478 ft 8 kts 292°
2026-05-07 19:56 48.34387 11.76805 1479 ft 9 kts 292°
2026-05-07 19:56 48.34434 11.76724 1476 ft 12 kts 326°
2026-05-07 19:56 48.34517 11.76692 1484 ft 13 kts 355°
2026-05-07 19:56 48.34577 11.76768 1481 ft 12 kts 79°
2026-05-07 19:57 48.34586 11.76896 1482 ft 13 kts 83°
2026-05-07 19:57 48.34598 11.77043 1481 ft 15 kts 82°
2026-05-07 19:57 48.34610 11.77191 1477 ft 14 kts 84°
2026-05-07 19:57 48.34622 11.77366 1474 ft 19 kts 83°
2026-05-07 19:58 48.34638 11.77571 1472 ft 20 kts 83°
2026-05-07 19:58 48.34654 11.77774 1474 ft 18 kts 84°
2026-05-07 19:58 48.34700 11.77893 1484 ft 12 kts
2026-05-07 19:58 48.34766 11.77883 1482 ft 8 kts 352°
2026-05-07 19:59 48.34827 11.77872 1479 ft 10 kts 354°
2026-05-07 19:59 48.34903 11.77858 1480 ft 13 kts 353°
2026-05-07 19:59 48.35031 11.77837 1476 ft 21 kts 354°
2026-05-07 19:59 48.35176 11.77812 1484 ft 18 kts 353°
2026-05-07 20:00 48.35226 11.77745 1479 ft 9 kts 267°